Location: New Plymouth
(39.0670°S, 174.0830°E)
Time: 17:07:23
(UTC+13:00)

Cosmos 2237 Rocket - Pass Details

Date: 24 January 2019
Orbit: 833 x 851 km, 71.0° (Epoch: 18 October)

Event Time Altitude Azimuth Distance (km) Brightness Sun altitude
Exits shadow 23:57:26 32° 110° (ESE) 1,416 3.2 -27.3°
Drops below altitude 10° 00:01:05 10° 142° (SE) 2,488 4.9 -27.7°
Sets 00:03:41 0° 149° (SSE) 3,427 5.8 -27.9°
